Погода в Сибиу

Румыния     45°47′24″N   24°08′07″E
темп.,
°C
ветер,
м/с
пор.,
м/с
влажн.,
%
обл.,
%
осадки,
мм/ч
давл.,
гПа
погр.,
м
13 июня, вс
вс1300:00+12ю22885 0.1 101520
03:00+12ююз2286100 0.1 101320
06:00+13юз1184100 0.1 101115
09:00+13ю2495100 5.3 1010106
12:00+12ююв229898 9.1 1014123
15:00+17ссз69694 10.8 10131654
18:00+16с69672 0.3 10151229
21:00+13з12691 0.4 101638
14 июня, пн
пн1400:00+11ююз227499 0.1 101725
03:00+9ююз117857 0.2 101711
06:00+10св1171100 0.0 101630
09:00+10ссв0184100 0.1 1018125
12:00+9ю2294100 1.3 1018129
15:00+10ю1292100 2.8 1018133
18:00+11юз2489100 0.2 1017522
21:00+10ююз219298 1.1 101833
15 июня, вт
вт1500:00+10ююз229186 0.2 101936
03:00+10ю2291100 0.2 101824
06:00+8юз1191100 0.0 101911
09:00+12зсз118198 0.0 1019412
12:00+14с227384 0.0 1018725
15:00+16с237175 0.0 1017911
18:00+17сз127066 0.0 1017958
21:00+14зюз118199 0.0 101615
16 июня, ср
ср1600:00+14ююз1185100 0.1 101615
03:00+12юз229229 0.5 101615
06:00+13юз119183 0.1 101615
09:00+16ссз118334 0.3 1017299
12:00+20с22728 0.4 1016953
15:00+21св226714 1.6 10161140
18:00+21сз12685 1.5 1016991
21:00+17юз118568 2.1 101611
17 июня, чт
чт1700:00+14ююз228881 0.0 101816
03:00+13ююз11875 0.0 101814
06:00+12ю11895 0.0 101811
09:00+17св11815 0.0 1018267
12:00+21всв22695 0.0 1018768
15:00+23всв33604 0.3 10161268
18:00+24св226112 0.7 10161452
21:00+18ю118174 2.3 101712